Date String (YYYY-MM-DD hh:mm:ss) UTC,Instrument flags,absolute air pressure of the measurement (hPa),sample flow rate (lpm),inlet stack bypass flow (lpm),air temperature of the measurement (°C),ambient temperature measured by the external sensor (°C),aerosol sample conditioner tube jacket temperature (°C),OPC LED temperature (°C),internal box temperature (°C),relative humidity of the measurement (%),span deviation,mass concentration of particles derived from Lorenz-Mie calculation of OPC scattering (μg/m³),mass concentration of particles derived from Lorenz-Mie calculation of OPC scattering (μg/m³),mass concentration of particles derived from Lorenz-Mie calculation of OPC scattering (μg/m³)
DateTimeUTC,F1_M11,P_M11,Q1_M11,Q2_M11,T1_M11,T2_M11,T3_M11,T4_M11,T5_M11,U1_M11,ZSPAN_M11,X0_M11,X2_M11,X1_M11
2023-08-30 08:00:00,SystemResetWarning,0834.4,5.01,000.00,028.3,024.4,000.0,036.8,029.4,27.0,0002.0,0010.63,0005.86,0005.24
2023-08-30 08:01:00,SystemResetWarning,0834.4,5.00,000.00,028.2,024.8,000.0,036.8,029.4,27.0,0002.0,0010.66,0005.85,0005.23
2023-08-30 08:02:00,SystemResetWarning,0834.4,5.01,000.00,028.2,025.2,000.0,036.8,029.5,27.1,0001.6,0011.46,0005.83,0005.23
2023-08-30 08:03:00,SystemResetWarning,0834.4,5.00,000.00,028.2,025.6,000.0,036.8,029.6,26.8,0001.6,0011.57,0005.81,0005.24
2023-08-30 08:04:00,SystemResetWarning,0834.3,4.99,000.00,028.2,025.9,000.0,036.8,029.7,26.8,0001.7,0011.64,0005.82,0005.23
2023-08-30 08:05:00,SystemResetWarning,0834.4,4.98,000.00,028.2,026.1,000.0,036.8,029.7,26.8,0002.0,0011.58,0005.80,0005.22
2023-08-30 08:06:00,SystemResetWarning,0834.4,5.00,000.00,028.2,026.4,000.0,036.8,029.8,26.8,0002.1,0012.14,0005.80,0005.22
2023-08-30 08:07:00,SystemResetWarning,0834.4,5.01,000.00,028.2,026.5,000.0,036.8,029.8,26.7,0002.4,0012.42,0005.81,0005.22
2023-08-30 08:08:00,SystemResetWarning,0834.4,5.01,000.00,028.2,026.7,000.0,036.8,029.9,26.6,0002.6,0012.75,0005.79,0005.21
2023-08-30 08:09:00,SystemResetWarning,0834.4,5.00,000.00,028.3,026.8,000.0,036.9,029.9,26.6,0002.1,0012.85,0005.77,0005.21
2023-08-30 08:10:00,SystemResetWarning,0834.4,4.99,000.00,028.3,026.9,000.0,036.9,029.9,26.5,0001.5,0012.79,0005.80,0005.22
2023-08-30 08:11:00,SystemResetWarning,0834.4,4.99,000.00,028.3,027.0,000.0,036.9,030.0,26.5,0000.6,0012.93,0005.84,0005.24
2023-08-30 08:12:00,SystemResetWarning,0834.4,5.00,000.00,028.3,027.1,000.0,036.9,030.0,26.5,0000.2,0012.61,0005.81,0005.25
2023-08-30 08:13:00,SystemResetWarning,0834.4,5.00,000.00,028.4,027.2,000.0,036.9,030.1,26.3,0000.4,0012.06,0005.83,0005.25
2023-08-30 08:14:00,SystemResetWarning,0834.3,5.00,000.00,028.4,027.2,000.0,036.9,030.1,26.4,0000.9,0011.58,0005.82,0005.25
2023-08-30 08:15:00,SystemResetWarning,0834.3,5.01,000.00,028.4,027.3,000.0,036.9,030.1,26.4,0000.8,0011.56,0005.81,0005.24
2023-08-30 08:16:00,SystemResetWarning,0834.3,5.00,000.00,028.5,027.3,000.0,037.0,030.1,26.5,0000.9,0011.69,0005.79,0005.25
2023-08-30 08:17:00,SystemResetWarning,0834.3,5.00,000.00,028.5,027.3,000.0,037.0,030.2,26.5,0000.3,0011.67,0005.80,0005.25
2023-08-30 08:18:00,SystemResetWarning,0834.4,5.00,000.00,028.5,027.4,000.0,037.0,030.2,26.4,0000.0,0011.43,0005.77,0005.24
2023-08-30 08:19:00,SystemResetWarning,0834.3,5.00,000.00,028.5,027.4,000.0,037.0,030.2,26.3,-000.2,0011.19,0005.75,0005.23
2023-08-30 08:20:00,SystemResetWarning,0834.3,5.00,000.00,028.6,027.4,000.0,037.1,030.2,26.3,0000.2,0010.77,0005.76,0005.24
2023-08-30 08:21:00,SystemResetWarning,0834.5,4.99,000.00,028.6,027.5,000.0,037.1,030.2,26.4,0000.3,0010.66,0005.72,0005.22
2023-08-30 08:22:00,SystemResetWarning,0834.3,4.99,000.00,028.6,027.5,000.0,037.1,030.3,26.2,0000.6,0010.57,0005.71,0005.21
2023-08-30 08:23:00,SystemResetWarning,0834.3,5.00,000.00,028.6,026.8,000.0,037.1,030.2,26.3,0000.6,0010.56,0005.71,0005.20
2023-08-30 08:24:00,SystemResetWarning,0834.3,5.00,000.00,028.5,024.9,000.0,036.9,029.8,26.5,0000.2,0010.28,0005.71,0005.20
2023-08-30 08:25:00,SystemResetWarning,0834.5,5.01,000.00,028.4,024.2,000.0,036.8,029.6,26.4,0000.0,0010.52,0005.67,0005.18
2023-08-30 08:26:00,SystemResetWarning,0834.7,5.02,000.00,028.3,024.3,000.0,036.8,029.3,26.8,-000.0,0010.31,0005.65,0005.18
2023-08-30 08:27:00,SystemResetWarning,0834.4,4.99,000.00,028.2,024.7,000.0,036.8,029.4,26.8,-000.2,0010.05,0005.65,0005.17
2023-08-30 08:28:00,SystemResetWarning,0834.2,5.00,000.00,028.2,025.1,000.0,036.9,029.5,26.8,0000.1,0009.55,0005.64,0005.16
2023-08-30 08:29:00,SystemResetWarning,0834.3,5.01,000.00,028.2,025.5,000.0,036.9,029.6,26.8,0000.2,0009.44,0005.65,0005.16
2023-08-30 08:30:00,SystemResetWarning,0834.3,5.01,000.00,028.2,025.8,000.0,036.9,029.7,26.6,0000.2,0009.35,0005.64,0005.16
2023-08-30 08:31:00,SystemResetWarning,0834.5,5.00,000.00,028.2,026.1,000.0,036.9,029.7,26.6,-000.1,0009.23,0005.61,0005.15
2023-08-30 08:32:00,SystemResetWarning,0834.3,5.00,000.00,028.2,026.3,000.0,036.9,029.8,26.6,-000.2,0009.15,0005.57,0005.12
2023-08-30 08:33:00,SystemResetWarning,0834.5,5.00,000.00,028.2,026.5,000.0,036.9,029.8,26.6,-000.1,0009.10,0005.54,0005.11
2023-08-30 08:34:00,SystemResetWarning,0834.5,5.00,000.00,028.2,026.7,000.0,036.9,029.9,26.6,0000.5,0009.05,0005.53,0005.10
2023-08-30 08:35:00,SystemResetWarning,0834.5,5.00,000.00,028.3,026.8,000.0,036.9,029.9,26.5,0000.8,0008.91,0005.48,0005.08
2023-08-30 08:36:00,SystemResetWarning,0834.6,5.00,000.00,028.3,026.9,000.0,036.9,029.9,26.5,0001.3,0008.39,0005.50,0005.09
2023-08-30 08:37:00,SystemResetWarning,0834.5,5.00,000.00,028.3,027.0,000.0,036.9,029.9,26.3,0001.5,0008.26,0005.50,0005.08
2023-08-30 08:38:00,SystemResetWarning,0834.3,5.00,000.00,028.3,027.0,000.0,036.9,030.0,26.3,0001.4,0008.22,0005.47,0005.06
2023-08-30 08:39:00,SystemResetWarning,0834.3,5.00,000.00,028.4,027.1,000.0,036.9,030.0,26.2,0000.7,0008.21,0005.42,0005.03
2023-08-30 08:40:00,SystemResetWarning,0834.4,5.00,000.00,028.4,027.2,000.0,036.9,030.0,26.1,0000.5,0008.19,0005.40,0005.00
2023-08-30 08:41:00,SystemResetWarning,0834.5,5.00,000.00,028.4,027.2,000.0,036.9,030.0,26.2,0000.4,0008.13,0005.35,0004.98
2023-08-30 08:42:00,SystemResetWarning,0834.6,5.00,000.00,028.4,027.3,000.0,036.9,030.1,26.4,0000.3,0008.19,0005.34,0004.96
2023-08-30 08:43:00,SystemResetWarning,0834.5,5.00,000.00,028.5,027.3,000.0,037.0,030.1,26.4,0000.4,0008.38,0005.36,0004.96
2023-08-30 08:44:00,SystemResetWarning,0834.5,5.00,000.00,028.5,027.3,000.0,037.0,030.1,26.3,-000.0,0008.36,0005.34,0004.94
2023-08-30 08:45:00,SystemResetWarning,0834.6,5.00,000.00,028.5,027.4,000.0,037.0,030.2,26.1,-000.5,0008.34,0005.32,0004.92
2023-08-30 08:46:00,SystemResetWarning,0834.3,5.01,000.00,028.5,027.4,000.0,037.0,030.2,26.1,-000.7,0008.39,0005.31,0004.90
2023-08-30 08:47:00,SystemResetWarning,0834.2,5.00,000.00,028.6,027.4,000.0,037.0,030.2,25.9,-001.2,0008.43,0005.27,0004.87
2023-08-30 08:48:00,SystemResetWarning,0834.3,5.00,000.00,028.6,027.4,000.0,037.1,030.2,25.7,-001.4,0008.40,0005.24,0004.86
2023-08-30 08:49:00,SystemResetWarning,0834.3,5.01,000.00,028.6,027.5,000.0,037.1,030.3,25.7,-000.9,0009.34,0005.28,0004.87
2023-08-30 08:50:00,SystemResetWarning,0834.4,5.00,000.00,028.6,027.5,000.0,037.1,030.3,25.6,-000.2,0010.02,0005.29,0004.88
2023-08-30 08:51:00,SystemResetWarning,0834.3,4.98,000.00,028.7,027.5,000.0,037.1,030.3,25.7,-000.0,0010.29,0005.29,0004.90
2023-08-30 08:52:00,SystemResetWarning,0834.3,5.00,000.00,028.7,027.2,000.0,037.1,030.3,25.9,-000.3,0011.16,0005.29,0004.90
2023-08-30 08:53:00,SystemResetWarning,0834.5,5.00,000.00,028.6,025.4,000.0,037.0,030.0,26.0,-000.5,0011.26,0005.28,0004.90
2023-08-30 08:54:00,SystemResetWarning,0834.3,5.00,000.00,028.5,024.3,000.0,036.9,029.7,26.2,0000.1,0011.13,0005.27,0004.90
2023-08-30 08:55:00,SystemResetWarning,0834.4,5.02,000.00,028.4,024.3,000.0,036.9,029.4,26.3,0000.6,0012.15,0005.28,0004.91
2023-08-30 08:56:00,SystemResetWarning,0834.2,5.00,000.00,028.3,024.6,000.0,036.9,029.4,26.5,0000.9,0012.81,0005.29,0004.92
2023-08-30 08:57:00,SystemResetWarning,0834.2,5.00,000.00,028.2,025.0,000.0,036.9,029.5,26.6,0001.3,0012.80,0005.31,0004.94
2023-08-30 08:58:00,SystemResetWarning,0834.3,5.01,000.00,028.2,025.4,000.0,036.9,029.6,26.5,0001.3,0012.84,0005.38,0004.96
2023-08-30 08:59:00,SystemResetWarning,0834.4,5.00,000.00,028.2,025.7,000.0,036.9,029.7,26.4,0001.5,0012.91,0005.41,0004.96
